{"data":{"norad_id":65496,"epoch":"2026-05-24T17:59:04.753248Z","epoch_age_seconds":96977,"freshness":"FRESH","line1":"1 65496U 25198E   26144.74936057  .00009252  00000+0  32407-3 0  9999","line2":"2 65496  53.1578 277.8172 0001036  87.4923 272.6196 15.30204065 40269","mean_motion":15.30204065,"eccentricity":0.0001036,"inclination_deg":53.1578,"raan_deg":277.8172,"arg_perigee_deg":87.4923,"mean_anomaly_deg":272.6196,"bstar":0.00032407,"rev_number":4026,"period_min":94.105095714799,"perigee_km":474.49292607195,"apogee_km":475.91293810588,"semimajor_km":6853.3399320889,"source":"CELESTRAK","updated_at":"2026-05-25T13:38:20.840212Z"}}